Weather History for Plymouth, NH

Change the Weather History Date:

Monday, October 21, 2013

  Actual Average (KLCI) Record (KLCI)
Temperature  
Mean Temperature 46 °F -  
Max Temperature 63 °F 57 °F 73 °F (2000)
Min Temperature 29 °F 37 °F 25 °F (1988)
Degree Days  
Heating Degree Days 19    
Moisture  
Dew Point 37 °F    
Average Humidity 79    
Maximum Humidity 100    
Minimum Humidity 37    
Precipitation  
Precipitation 0.00 in - - ()
Sea Level Pressure  
Sea Level Pressure 30.02 in    
Wind  
Wind Speed 1 mph (WSW)    
Max Wind Speed 9 mph    
Max Gust Speed 16 mph    
Visibility 9 miles    
Events      
Averages and records for this station are not official NWS values.
T = Trace of Precipitation, MM = Missing Value Source: NWS Daily Summary

Daily Weather History Graph

Daily Weather History Graph

Search for Another Location

Airport:

Trip Planner

Search our weather history database for the weather conditions in past years. The results will help you decide how hot, cold, wet, or windy it might be!

Date:

Astronomy

Oct. 21, 2013 Rise Set
Actual Time 7:09 AM EDT 5:53 PM EDT
Civil Twilight 6:39 AM EDT 6:22 PM EDT
Nautical Twilight 6:06 AM EDT 6:56 PM EDT
Astronomical Twilight 5:33 AM EDT 7:29 PM EDT
Moon 7:39 PM EDT (10/21) 9:45 AM EDT (10/21)
Length of Visible Light 11h 42m
Length of Day
10h 44m
Waning Gibbous, 93% of the Moon is Illuminated
Oct 21
Waning Gibbous
Oct 26
Last Quarter
Nov 3
New
Nov 10
First Quarter
Nov 17
Full

Hourly Weather History & Observations

Time (EDT) Temp. Windchill Dew Point Humidity Pressure Visibility Wind Dir Wind Speed Gust Speed Precip Events Conditions
12:15 AM 34.9 °F - 33.3 °F 94% 29.99 in 10.0 mi Calm Calm - N/A   Clear
12:35 AM 34.7 °F - 33.4 °F 95% 29.99 in 10.0 mi Calm Calm - N/A   Clear
12:55 AM 34.7 °F - 33.8 °F 97% 30.00 in 10.0 mi Calm Calm - N/A   Clear
1:15 AM 34.7 °F 31.8 °F 33.8 °F 97% 30.00 in 10.0 mi West 3.5 mph - N/A   Clear
1:35 AM 35.8 °F 33.0 °F 34.2 °F 94% 30.00 in 10.0 mi West 3.5 mph - N/A   Clear
1:55 AM 35.8 °F 33.0 °F 33.6 °F 92% 30.01 in 10.0 mi West 3.5 mph - N/A   Clear
2:15 AM 34.9 °F 32.0 °F 33.4 °F 94% 30.01 in 10.0 mi West 3.5 mph - N/A   Clear
2:35 AM 35.6 °F 32.8 °F 33.6 °F 92% 30.01 in 10.0 mi West 3.5 mph - N/A   Clear
2:55 AM 34.0 °F - 32.9 °F 96% 30.01 in 10.0 mi Calm Calm - N/A   Clear
3:15 AM 34.7 °F - 33.4 °F 95% 30.02 in 10.0 mi Calm Calm - N/A   Clear
3:35 AM 34.7 °F - 33.1 °F 94% 30.02 in 10.0 mi Calm Calm - N/A   Clear
3:55 AM 32.9 °F - 32.0 °F 96% 30.02 in 10.0 mi Calm Calm - N/A   Clear
4:15 AM 32.0 °F - 31.6 °F 99% 30.03 in 10.0 mi Calm Calm - N/A   Clear
4:35 AM 31.8 °F - 31.1 °F 97% 30.04 in 5.0 mi Calm Calm - N/A   Clear
4:55 AM 31.6 °F - 31.1 °F 98% 30.04 in 7.0 mi Calm Calm - N/A   Clear
5:15 AM 31.1 °F - 31.1 °F 100% 30.05 in 7.0 mi Calm Calm - N/A   Clear
5:35 AM 31.1 °F - 30.9 °F 99% 30.05 in 10.0 mi Calm Calm - N/A   Clear
5:55 AM 30.6 °F - 30.2 °F 99% 30.05 in 5.0 mi Calm Calm - N/A   Clear
6:15 AM 30.0 °F - 29.8 °F 99% 30.06 in 7.0 mi Calm Calm - N/A   Clear
6:35 AM 30.0 °F - 30.0 °F 100% 30.06 in 7.0 mi Calm Calm - N/A   Clear
6:55 AM 30.0 °F - 30.0 °F 100% 30.06 in 3.0 mi Calm Calm - N/A   Clear
7:15 AM 30.0 °F - 30.0 °F 100% 30.07 in 4.0 mi Calm Calm - N/A   Clear
7:35 AM 29.7 °F - 29.7 °F 100% 30.07 in 2.0 mi Calm Calm - N/A   Clear
7:55 AM 30.0 °F - 30.0 °F 100% 30.08 in 7.0 mi Calm Calm - N/A   Clear
8:15 AM 31.3 °F - 31.3 °F 100% 30.09 in 10.0 mi Calm Calm - N/A   Clear
8:35 AM 32.0 °F - 32.0 °F 100% 30.09 in 10.0 mi Calm Calm - N/A   Clear
8:55 AM 34.0 °F - 33.4 °F 98% 30.09 in 10.0 mi Calm Calm - N/A   Clear
9:15 AM 36.0 °F - 34.2 °F 93% 30.09 in 10.0 mi Calm Calm - N/A   Clear
9:35 AM 37.6 °F - 34.7 °F 89% 30.09 in 10.0 mi Calm Calm - N/A   Clear
9:55 AM 39.6 °F - 35.6 °F 86% 30.09 in 10.0 mi Calm Calm - N/A   Clear
10:15 AM 42.1 °F - 36.7 °F 81% 30.08 in 10.0 mi Calm Calm - N/A   Clear
10:35 AM 44.4 °F - 37.0 °F 75% 30.08 in 10.0 mi Calm Calm - N/A   Clear
10:55 AM 46.8 °F - 37.9 °F 71% 30.07 in 10.0 mi Calm Calm - N/A   Clear
11:15 AM 49.5 °F - 38.5 °F 66% 30.06 in 10.0 mi Calm Calm - N/A   Clear
11:35 AM 52.0 °F - 39.0 °F 61% 30.05 in 10.0 mi Calm Calm - N/A   Clear
11:55 AM 54.3 °F - 40.1 °F 59% 30.05 in 10.0 mi Calm Calm - N/A   Clear
12:15 PM 56.5 °F - 39.9 °F 54% 30.04 in 10.0 mi Calm Calm - N/A   Clear
12:35 PM 57.6 °F - 38.3 °F 49% 30.03 in 10.0 mi Calm Calm - N/A   Clear
12:55 PM 58.5 °F - 37.9 °F 46% 30.03 in 10.0 mi Calm Calm - N/A   Clear
1:15 PM 59.4 °F - 38.7 °F 46% 30.02 in 10.0 mi Calm Calm - N/A   Clear
1:55 PM 61.3 °F - 37.4 °F 41% 30.00 in 10.0 mi WSW 3.5 mph - N/A   Clear
2:15 PM 62.6 °F - 38.1 °F 40% 30.00 in 10.0 mi West 8.1 mph - N/A   Clear
2:35 PM 62.8 °F - 37.9 °F 40% 29.99 in 10.0 mi WNW 5.8 mph - N/A   Clear
2:55 PM 63.3 °F - 36.9 °F 37% 29.99 in 10.0 mi WSW 9.2 mph 16.1 mph N/A   Clear
3:15 PM 63.5 °F - 37.8 °F 39% 29.99 in 10.0 mi NW 4.6 mph - N/A   Clear
3:35 PM 63.5 °F - 36.7 °F 37% 29.98 in 10.0 mi SW 3.5 mph - N/A   Clear
3:55 PM 62.6 °F - 38.1 °F 40% 29.98 in 10.0 mi South 4.6 mph - N/A   Clear
4:15 PM 61.9 °F - 39.0 °F 43% 29.98 in 10.0 mi South 5.8 mph - N/A   Clear
4:35 PM 61.7 °F - 39.2 °F 43% 29.98 in 10.0 mi Calm Calm - N/A   Clear
4:55 PM 61.2 °F - 38.7 °F 43% 29.97 in 10.0 mi Calm Calm - N/A   Clear
5:15 PM 60.1 °F - 39.4 °F 46% 29.98 in 10.0 mi Calm Calm - N/A   Clear
5:35 PM 59.4 °F - 39.6 °F 48% 29.98 in 10.0 mi Calm Calm - N/A   Clear
5:55 PM 55.9 °F - 43.5 °F 63% 29.98 in 10.0 mi Calm Calm - N/A   Clear
6:15 PM 54.7 °F - 43.3 °F 66% 29.99 in 10.0 mi Calm Calm - N/A   Clear
6:35 PM 51.8 °F - 43.2 °F 72% 29.99 in 10.0 mi Calm Calm - N/A   Clear
6:55 PM 50.4 °F - 45.5 °F 83% 29.99 in 10.0 mi Calm Calm - N/A   Clear
7:15 PM 49.5 °F - 44.4 °F 83% 29.99 in 10.0 mi Calm Calm - N/A   Clear
7:35 PM 48.7 °F - 44.8 °F 86% 29.99 in 10.0 mi Calm Calm - N/A   Clear
7:55 PM 48.6 °F - 43.9 °F 84% 29.98 in 10.0 mi Calm Calm - N/A   Clear
8:15 PM 47.7 °F - 43.9 °F 87% 29.99 in 10.0 mi Calm Calm - N/A   Clear
8:35 PM 47.8 °F - 43.7 °F 86% 29.98 in 10.0 mi Calm Calm - N/A   Clear
8:55 PM 47.7 °F - 43.9 °F 87% 29.98 in 10.0 mi Calm Calm - N/A   Clear
9:15 PM 46.8 °F - 43.7 °F 89% 29.98 in 10.0 mi Calm Calm - N/A   Clear
9:35 PM 47.1 °F - 43.7 °F 88% 29.98 in 10.0 mi Calm Calm - N/A   Clear
9:55 PM 46.4 °F - 43.2 °F 88% 29.97 in 10.0 mi Calm Calm - N/A   Clear
10:15 PM 45.9 °F - 43.2 °F 90% 29.97 in 10.0 mi Calm Calm - N/A   Clear
10:35 PM 45.7 °F - 43.2 °F 91% 29.97 in 10.0 mi Calm Calm - N/A   Clear
10:55 PM 45.0 °F - 42.8 °F 92% 29.96 in 10.0 mi Calm Calm - N/A   Clear
11:15 PM 44.8 °F - 42.8 °F 93% 29.96 in 10.0 mi Calm Calm - N/A   Clear
11:35 PM 44.6 °F - 42.8 °F 93% 29.95 in 10.0 mi Calm Calm - N/A   Clear
11:55 PM 43.9 °F - 42.4 °F 95% 29.95 in 10.0 mi Calm Calm - N/A   Clear